Lexington Weather

Lexington, Massachusetts, USA

26°F
2/26/2021 8:17am 
  • Lexington Conditions: Clear
  • Temperature: 26.4°F / -3.1°CWarmer 1.8°F than last hour.
  • Dew Point: 16.5°FIncreased 1.2°Fsince last hour.
  • Relative Humidity: 66%Decreased 1.0% since last hour.
  • Wind: Wind from NNW NNW 3 mph, 10-min avg: 2 mph, gust: 3 mph
  • Barometer: 30.37 inRising 0.04  inHg/hr Rising Slowly
  • Visibility: 10 miles
  • Snow Today: 0.0 in
  •   

Regional Weather Roundup
for Boston / Norton, MA

        
000
ASUS41 KBOX 240904
RWRBOX

REGIONAL WEATHER ROUNDUP
NATIONAL WEATHER SERVICE BOSTON/NORTON MA
400 AM EST WED FEB 24 2021

NOTE:  "FAIR" INDICATES FEW OR NO CLOUDS BELOW 12,000 FEET WITH NO 
SIGNIFICANT WEATHER AND/OR OBSTRUCTIONS TO VISIBILITY.

MAZALL-241000-
EASTERN MASSACHUSETTS
  
CITY           SKY/WX    TMP DP  RH WIND       PRES   REMARKS
BOSTON         CLEAR     38  28  67 W10       29.83R WCI  31          
BEVERLY        CLEAR     35  28  75 W6        29.81R WCI  30          
LAWRENCE       CLEAR     33  27  78 SW8       29.82R WCI  26          
BEDFORD        CLEAR     38  28  67 W8        29.81R                  
BLUE HILL        N/A     35  29  78 W15       29.80R WCI  25          
NORWOOD        CLEAR     39  28  64 W5        29.84R                  
MARSHFIELD     CLEAR     37  30  75 VRB6      29.83R                  
PLYMOUTH       CLEAR     37  29  72 W7        29.83R WCI  32          
TAUNTON        CLEAR     38  29  70 W6        29.85R                  
NEW BEDFORD    CLEAR     41  28  60 W12       29.85R                  
$$

MAZALL-241000-
CAPE COD AND THE ISLANDS
  
CITY           SKY/WX    TMP DP  RH WIND       PRES   REMARKS
FALMOUTH       CLEAR     36  30  80 W13       29.83R WCI  27          
HYANNIS        CLEAR     34  29  82 SW5       29.83R WCI  30          
CHATHAM        CLEAR     36  28  73 W5        29.85R                  
PROVINCETOWN   PTCLDY    36  32  85 SW9       29.84R WCI  29          
NANTUCKET      CLEAR     37  33  85 W12       29.86R WCI  29          
MARTHAS VNYRD  CLEAR     40  32  73 W15G25    29.86R WCI  32          
$$
 
MAZALL-241000-
CENTRAL AND WESTERN MASSACHUSETTS
  
CITY           SKY/WX    TMP DP  RH WIND       PRES   REMARKS
WORCESTER      CLEAR     38  24  57 W14G25    29.80R WCI  30          
FITCHBURG      PTCLDY    37  28  70 CALM      29.82R                  
ORANGE         CLEAR     38  27  64 NW6       29.84R                  
SPRINGFIELD    CLEAR     38  25  59 W12       29.86R WCI  31          
WESTFIELD      CLEAR     40  28  62 CALM      29.88R                  
NORTH ADAMS    PTCLDY    38  27  64 W20       29.87R WCI  28          
PITTSFIELD     MOCLDY    35  28  75 W9        29.86R WCI  28          
$$
 
RIZALL-241000-
RHODE ISLAND
  
CITY           SKY/WX    TMP DP  RH WIND       PRES   REMARKS
PROVIDENCE     PTCLDY    40  27  59 W6        29.88R                  
NEWPORT        CLEAR     38  30  73 W6        29.87R                  
BLOCK ISLAND   CLEAR     37  32  82 W14       29.92R WCI  28          
SMITHFIELD     PTCLDY    37  29  72 W5        29.85R                  
WESTERLY       CLEAR     36  29  75 W3        29.91R                  
$$
 
CTZALL-241000-
CONNECTICUT
  
CITY           SKY/WX    TMP DP  RH WIND       PRES   REMARKS
BRADLEY INTL   PTCLDY    38  27  64 W13       29.89R WCI  30          
HARTFORD       CLEAR     38  27  64 CALM      29.92R                  
BRIDGEPORT     CLEAR     39  31  72 SW8       29.94R                  
DANBURY        CLEAR     40  29  64 VRB6      29.94R                  
GROTON         CLEAR     38  32  79 W10G20    29.91R WCI  31          
NEW HAVEN      CLEAR     41  31  67 W6        29.93R                  
CHESTER        FAIR      34  30  86 SW5       29.91R WCI  30          
MERIDEN        CLEAR     39  27  62 W12       29.92R WCI  32          
WILLIMANTIC    CLEAR     40  26  57 NW9       29.89R                  
OXFORD         CLEAR     36  30  79 W7        29.91R WCI  30          
$$

MEZ002-015-021-024-NHZ003-005-008-011-012-014-VTZ005-008-241000-
NORTHERN NEW ENGLAND
  
CITY           SKY/WX    TMP DP  RH WIND       PRES   REMARKS
PORTLAND ME    CLEAR     35  29  78 SW3       29.74R                  
BANGOR ME      CLOUDY    32  31  96 SW3       29.67R                  
CONCORD NH     CLEAR     38  27  64 W10       29.77R WCI  31          
MANCHESTER NH  PTCLDY    37  27  67 S6        29.78R                  
NASHUA NH      CLEAR     35  29  78 VRB3      29.81R                  
PORTSMOUTH NH  PTCLDY    35  28  76 S5        29.78  WCI  31          
JAFFREY NH     PTCLDY    34  26  72 S3        29.78R                  
KEENE NH       PTCLDY    32  29  88 VRB3      29.82R                  
BURLINGTON VT  MOCLDY    39  28  64 NW9       29.81R                  
MT. WASHINGTON SNOW      14  14 100 W63G77      N/A  VSB 0   WCI -13  
$$

NYZ052-076-241000-
EASTERN NEW YORK
  
CITY           SKY/WX    TMP DP  RH WIND       PRES   REMARKS
ALBANY         PTCLDY    36  30  79 W15G28    29.89R WCI  27          
NEW YORK CITY  CLEAR     43  27  53 W10       29.97R                  
$$
 
ANZALL-241000-
MARINE OBSERVATIONS
  
STATION/POSITION TIME  TEMP    WIND        PRES    VSBY  WAVE
                       AIR SEA DIR/SP/G                  HT/PER
                 (UTC) (F)     (DEG/KT/KT) (MB)    (MI)  (FT/S)
BOSTON BUOY      0840   39 39  250/ 14/ 17 1010.2R
BUZZARDS BAY     0800          260/ 20/ 21 1011.5R
NANTUCKET SOUND  0840      36  260/ 10/ 14   N/A
MASS BAY-STELLWA 0804   39     250/ 10/ 14 1007.2R  1 7/8  3/11
ISLE OF SHOALS   0800   37     260/ 14/ 16 1007.1R
S OF BLOCK IS    0826      38                N/A           7/10
$$

......................KEY.........................
  SKY/WX - SKY CONDITION/PRESENT WEATHER
  TMP    - TEMPERATURE IN FAHRENHEIT
  DWPT   - DEWPOINT IN FAHRENHEIT
  RH     - RELATIVE HUMIDITY IN PERCENT
  WIND   - DIRECTION AND SPEED IN MPH
  PRES   - MEAN SEA LEVEL PRESSURE IN INCHES OF HG
  WCI    - WIND CHILL INDEX
  VSB    - VISIBILITY IN MILES
  HX     - HEAT INDEX
  TC     - TEMPERATURE IN CELSIUS
  VRB    - VARIABLE WIND DIRECTION
  N/A    - NOT AVAILABLE
  
      

Other recent Regional Weather Roundups

Fri Feb 26, 8:04am

Fri Feb 26, 7:04am

Fri Feb 26, 6:04am

Fri Feb 26, 5:04am

Fri Feb 26, 4:04am

Fri Feb 26, 3:04am

Fri Feb 26, 2:04am

Fri Feb 26, 1:04am

Fri Feb 26, 12:04am

Thu Feb 25, 11:04pm

Thu Feb 25, 10:04pm

Thu Feb 25, 9:04pm

Thu Feb 25, 8:05pm

Thu Feb 25, 7:05pm

Thu Feb 25, 6:04pm

Thu Feb 25, 5:04pm

Thu Feb 25, 4:05pm

Thu Feb 25, 3:05pm

Thu Feb 25, 2:04pm

Thu Feb 25, 1:04pm

Thu Feb 25, 12:05pm

Thu Feb 25, 11:04am

Thu Feb 25, 10:04am

Thu Feb 25, 9:04am

Thu Feb 25, 8:04am

Thu Feb 25, 7:04am

Thu Feb 25, 6:04am

Thu Feb 25, 5:04am

Thu Feb 25, 4:04am

Thu Feb 25, 3:04am

Thu Feb 25, 2:04am

Thu Feb 25, 1:04am

Thu Feb 25, 12:04am

Wed Feb 24, 11:04pm

Wed Feb 24, 10:05pm

Wed Feb 24, 9:04pm

Wed Feb 24, 8:04pm

Wed Feb 24, 7:04pm

Wed Feb 24, 6:04pm

Wed Feb 24, 5:04pm

Wed Feb 24, 4:04pm

Wed Feb 24, 3:04pm

Wed Feb 24, 2:05pm

Wed Feb 24, 1:05pm

Wed Feb 24, 12:05pm

Wed Feb 24, 11:04am

Wed Feb 24, 10:04am

Wed Feb 24, 9:04am

Wed Feb 24, 8:04am

Wed Feb 24, 7:04am

Wed Feb 24, 6:04am

Wed Feb 24, 5:04am

Wed Feb 24, 3:04am

Wed Feb 24, 2:04am

Wed Feb 24, 1:04am

Wed Feb 24, 12:04am

Tue Feb 23, 11:04pm

Tue Feb 23, 10:04pm

Tue Feb 23, 9:04pm

Tue Feb 23, 8:05pm

Tue Feb 23, 7:04pm

Tue Feb 23, 6:04pm

Tue Feb 23, 5:04pm

Tue Feb 23, 4:05pm

Tue Feb 23, 3:04pm

Tue Feb 23, 2:04pm

Tue Feb 23, 1:04pm

Tue Feb 23, 12:04pm

Tue Feb 23, 11:04am

Tue Feb 23, 10:04am

Tue Feb 23, 9:04am

Tue Feb 23, 7:04am

Tue Feb 23, 6:04am

Tue Feb 23, 5:04am

Tue Feb 23, 4:04am

Tue Feb 23, 3:04am

Tue Feb 23, 2:04am

Tue Feb 23, 1:04am

Tue Feb 23, 12:04am

Mon Feb 22, 11:04pm

Mon Feb 22, 10:04pm

Mon Feb 22, 9:04pm

Mon Feb 22, 8:04pm

Mon Feb 22, 7:04pm

Mon Feb 22, 6:04pm

Mon Feb 22, 5:04pm

Mon Feb 22, 4:05pm

Mon Feb 22, 3:04pm

Mon Feb 22, 2:05pm

Mon Feb 22, 1:04pm

Mon Feb 22, 12:05pm

Mon Feb 22, 11:04am

Mon Feb 22, 10:04am

Mon Feb 22, 9:05am

Mon Feb 22, 8:04am

Mon Feb 22, 7:04am

Mon Feb 22, 6:04am

Mon Feb 22, 5:04am

Mon Feb 22, 4:04am

Mon Feb 22, 3:04am

Mon Feb 22, 2:04am

Mon Feb 22, 1:04am

Mon Feb 22, 12:04am

Sun Feb 21, 11:04pm

Sun Feb 21, 10:05pm

Sun Feb 21, 9:04pm

Sun Feb 21, 8:04pm

Sun Feb 21, 7:04pm

Sun Feb 21, 6:04pm

Sun Feb 21, 5:04pm

Sun Feb 21, 4:05pm

Sun Feb 21, 3:04pm

Sun Feb 21, 2:04pm

Sun Feb 21, 1:05pm

Sun Feb 21, 12:05pm

Sun Feb 21, 11:04am

Sun Feb 21, 10:05am

Sun Feb 21, 9:04am

Sun Feb 21, 8:04am

Sun Feb 21, 7:04am

Sun Feb 21, 6:04am

Sun Feb 21, 5:04am

Sun Feb 21, 4:04am

Sun Feb 21, 3:04am

Sun Feb 21, 2:04am

Sun Feb 21, 1:04am

Sun Feb 21, 12:04am

Sat Feb 20, 11:04pm

Sat Feb 20, 10:04pm

Sat Feb 20, 9:04pm

Sat Feb 20, 8:04pm

Sat Feb 20, 7:04pm

Sat Feb 20, 6:04pm

Sat Feb 20, 5:04pm

Sat Feb 20, 4:05pm

Sat Feb 20, 3:04pm

Sat Feb 20, 2:04pm

Sat Feb 20, 1:05pm

Sat Feb 20, 12:05pm

Sat Feb 20, 11:04am

Sat Feb 20, 10:05am

Sat Feb 20, 9:04am

Sat Feb 20, 8:04am

Sat Feb 20, 7:04am

Sat Feb 20, 6:04am

Sat Feb 20, 5:04am

Sat Feb 20, 4:04am

Sat Feb 20, 3:04am

Sat Feb 20, 2:04am

Sat Feb 20, 1:04am

Sat Feb 20, 12:04am

Fri Feb 19, 11:04pm

Fri Feb 19, 10:05pm

Fri Feb 19, 9:04pm

Fri Feb 19, 8:04pm

Fri Feb 19, 7:04pm

Fri Feb 19, 6:04pm

Fri Feb 19, 5:04pm

Fri Feb 19, 4:05pm

Fri Feb 19, 3:04pm

Fri Feb 19, 2:04pm

Fri Feb 19, 1:05pm

Fri Feb 19, 12:05pm

Fri Feb 19, 11:04am

Fri Feb 19, 10:04am

Fri Feb 19, 9:04am

Meta data:

ID: c576306c-9ec6-4da1-97ba-c47e5b0163a4
Link: https://api.weather.gov/products/c576306c-9ec6-4da1-97ba-c47e5b0163a4